STARLINK-1565 (46037 NORAD) Tracking and Keplerian Element Data

This shows tracking and keplerian element data for the satellite.

Feedback or suggestion? Click here.




ElementValue
Catalog46037
NameSTARLINK-1565
Epoch Orbit1830
Epoch Day332.7453746
Epoch Year2020
RAAN141.4946
Inclination53.0004
Eccentricity0.0002068
Argument of Perigee92.5046
Mean Anonmoly267.6179
Mean Motion15.05589613
Decay Rate3.94E-06
L11 46037U 20055L 20332.74537460 .00000394 00000-0 46193-4 0 9991
L22 46037 53.0004 141.4946 0002068 92.5046 267.6179 15.05589613 18308

Live tracking and technical data element details for STARLINK-1565 (NORAD 46037). STARLINK-1565 can be tracked NOW for your location showing map with azimuth and elevation plus other details from your city location.

Track the satellite on the map from your city or location and see movement details for azimuth, elevation, latitude, longitude, range, height, and movement on the map or in text.







IsCatalogInMostPopularTable: catalog: 46037, numindb: 22
Update: records affected: 1



GetName: 46037 STARLINK-1565

Hit Count: updated at: Sun, 29 Nov 2020 10:08:50 GMT